Regional Weather Roundup
Issued by NWS Sioux Falls, SD

Home | Current Version | Previous Version | Text Only | Print | Product List | Glossary On
Versions: 1 2 3 4 5 6 7 8 9 10 11 12 13 14 15 16 17 18 19 20 21 22 23 24 25 26 27 28 29 30 31 32 33 34 35 36 37 38 39 40 41 42 43 44 45 46 47 48 49 50
000
ASUS43 KFSD 021110
RWRFSD

WEATHER ROUNDUP FOR SE SOUTH DAKOTA/SW MINNESOTA/NW IOWA
NATIONAL WEATHER SERVICE SIOUX FALLS SD
600 AM CDT SUN AUG 02 2015

NOTE: "FAIR" INDICATES FEW OR NO CLOUDS BELOW 12,000 FEET WITH NO
SIGNIFICANT WEATHER AND OR OBSTRUCTIONS TO VISIBILITY.


SDZ038>040-050-052>070-021200-
SOUTHEAST SOUTH DAKOTA

CITY           SKY/WX    TMP DP  RH WIND       PRES   REMARKS
BROOKINGS      CLEAR     63  57  82 S5        29.77S
CHAMBERLAIN    CLEAR     65  60  82 W3        29.78F
HURON          CLEAR     61  59  93 E3        29.75R
MADISON        FAIR      64  64 100 W12       29.76F
MITCHELL       CLEAR     65  60  84 W5        29.76S
SIOUX FALLS    PTCLDY    64  60  87 SW6       29.76S
WINNER         FAIR      69  56  62 CALM      29.81R
YANKTON        CLEAR     70  63  78 SW5       29.76S
$$

MNZ071-072-080-081-089-090-097-098-021200-
SOUTHWEST MINNESOTA

CITY           SKY/WX    TMP DP  RH WIND       PRES   REMARKS
FAIRMONT       CLEAR     70  63  78 SW12      29.75R
JACKSON        CLEAR     70  63  78 SW13      29.77R
LUVERNE        CLEAR     64  61  88 S3        29.78R
MARSHALL       CLEAR     68  57  68 W10G17    29.71S
MONTEVIDEO     PTCLDY    64  59  82 W8        29.67F
PIPESTONE      CLEAR     63  61  94 SW7       29.77S
REDWOOD FALLS  CLEAR     69  62  78 SW9       29.68F
TRACY          CLEAR     68  63  83 W13G20    29.72S
WINDOM         CLEAR     66  63  88 SW8       29.75R
WORTHINGTON    CLEAR     66  61  82 SW14G20   29.77S
$$

IAZ001>003-012>014-020>022-031-032-NEZ013-014-SDZ071-021200-
NORTHWEST IOWA

CITY           SKY/WX    TMP DP  RH WIND       PRES   REMARKS
CHEROKEE       CLEAR     68  67  97 SW6       29.78F
DENISON        PTCLDY    70  68  94 SW7       29.80F
ESTHERVILLE    CLEAR     69  67  93 SW12      29.75F
LE MARS        CLEAR     68  68 100 S6        29.80R
ORANGE CITY    CLEAR     66  64  94 SW8       29.79S
SHELDON        CLEAR     66  64  94 SW9       29.78R
SIOUX CITY     CLEAR     69  64  84 S6        29.80S
SPENCER        CLEAR     70  66  87 SW9       29.78S
STORM LAKE     PTCLDY    68  64  88 S8        29.81S
$$

ABBREVIATIONS USED IN REMARKS
   TC - TEMPERATURE IN CELSIUS
  WCI - WIND CHILL INDEX
   HX - HEAT INDEX
  VSB - VISIBILITY



USA.gov is the U.S. government's official web portal to all federal, state and local government web resources and services.